www.pogodaiklimat.ru

Погода и климат >> Архив погоды >> Южная Африка >> Porterville


ПОГОДА в Porterville

  • Прогноз погоды в Porterville
  • Монитор погоды в Porterville
  • Климат города

АРХИВ ПОГОДЫ в Porterville

Время (UTC), дата Ветер
(напр.,м/с)
 
Видим.   Явления Облачность Т
(С)
Тd
(С)
f
(%)
Тe
(С)
Тes
(С)
Комфортность P
(гПа)
Po
(гПа)
Тmin
(С)
Tmax
(С)
R
(мм)
R24
(мм)
S
(см)
15 14.10 ЮЗ 6 н/о н/о +20.5 +10.1 51 +22 +22 комфорт 855.0 999.8 +20.5 +23.1
18 14.10 ЮЗ 2 н/о н/о +15.7 +10.3 70 +16 +16 855.3 1002.8 +15.6 +23.1
21 14.10 З 1 н/о н/о +13.4 +10.2 81 +14 +14 855.3 1004.2 +13.1 +23.1
00 15.10 С 2 н/о н/о +12.9 +10.2 84 +12 +12 854.6 1003.7 +12.7 +23.1
03 15.10 З 1 н/о н/о +13.5 +10.5 82 +14 +14 855.8 1004.7 +12.7 +23.1
06 15.10 СЗ 2 н/о н/о +15.5 +10.5 72 +16 +16 858.4 1006.5 +12.7
09 15.10 З 2 н/о н/о +19.6 +9.8 53 +21 +21 комфорт 860.0 1005.9 +12.7 +20.5
12 15.10 ЮЗ 2 н/о н/о +21.4 +9.4 46 +23 +23 комфорт 860.4 1005.3 +20.3 +23.1
15 15.10 Ю 1 н/о н/о +21.3 +10.3 49 +23 +23 комфорт 859.9 1004.9 +20.8 +23.2
18 15.10 ЮВ 1 н/о н/о +15.6 +11.0 74 +16 +16 858.1 1006.1 +15.6 +23.2
21 15.10 ЮЗ 1 н/о н/о +13.1 +9.9 81 +13 +13 857.9 1007.3 +13.1 +23.2
00 16.10 СВ 1 н/о н/о +8.3 +6.9 91 +7 +7 854.8 1006.5 +7.7 +23.2
03 16.10 штиль 0 н/о н/о +7.1 +5.8 91 +6 +6 854.0 1006.3 +6.5 +23.2
06 16.10 ЮЗ 1 н/о н/о +13.6 +9.6 77 +14 +14 857.9 1007.0 +6.5
12 16.10 ЮЗ 3 н/о н/о +23.5 +5.6 31 +23 +23 комфорт 860.2 1003.9 +6.5 +24.6
18 16.10 ЮЗ 1 н/о н/о +13.9 +8.7 71 +14 +14 857.3 1006.1 +13.9 +25.2
03 17.10 С 1 н/о н/о +8.5 +6.9 90 +8 +8 853.4 1004.8 +7.7 +25.2
06 17.10 СЗ 2 н/о н/о +15.0 +10.0 72 +15 +15 857.7 1006.0 +6.8
09 17.10 С 1 н/о н/о +21.8 +10.4 48 +24 +24 комфорт 859.5 1004.1 +6.8 +21.8
12 17.10 Ю 1 н/о н/о +25.9 +9.5 36 +27 +27 жарко 859.7 1002.1 +6.8 +26.3
15 17.10 ЮВ 1 н/о н/о +26.9 +8.1 30 +27 +27 жарко 858.3 1000.0 +26.0 +27.6
18 17.10 штиль 0 н/о н/о +19.5 +9.7 53 +20 +20 855.1 1000.5 +19.5 +27.6
21 17.10 СВ 1 н/о н/о +12.5 +8.9 79 +13 +13 852.2 1001.1 +12.5 +27.6
00 18.10 СВ 2 н/о н/о +12.3 +9.5 83 +12 +12 851.5 1000.4 +11.9 +27.6
03 18.10 штиль 0 н/о н/о +10.2 +7.8 85 +10 +10 849.7 999.6 +9.4 +27.6
06 18.10 ЮЗ 1 н/о н/о +17.2 +11.3 68 +18 +18 853.8 1000.3 +8.9
09 18.10 Ю 2 н/о н/о +25.4 +9.4 36 +26 +26 жарко 857.8 1000.3 +8.9 +25.4
12 18.10 ЮЗ 3 н/о н/о +28.5 +8.0 28 +28 +28 жарко 857.2 998.0 +8.9 +28.7
15 18.10 Ю 5 н/о н/о +26.4 +7.7 31 +26 +26 жарко 856.2 998.0 +26.4 +29.6
18 18.10 Ю 1 н/о н/о +17.7 +10.1 61 +19 +19 854.6 1001.0 +17.6 +29.6
21 18.10 штиль 0 н/о н/о +12.6 +10.5 87 +12 +12 853.3 1002.3 +12.0 +29.6
00 19.10 штиль 0 н/о н/о +10.7 +8.9 89 +10 +10 852.6 1002.6 +10.2 +29.6
03 19.10 ЮВ 1 н/о н/о +14.6 +12.1 85 +15 +15 855.7 1003.9 +10.2 +29.6
06 19.10 Ю 1 н/о н/о +15.8 +9.7 67 +17 +17 857.3 1005.1 +10.2 0.2
09 19.10 ЮВ 2 н/о н/о +20.8 +9.8 49 +23 +23 комфорт 860.5 1005.8 +10.2 +21.0
12 19.10 ЮВ 2 н/о н/о +21.8 +7.4 39 +23 +23 комфорт 860.7 1005.4 +10.2 +22.5
15 19.10 ЮВ 2 н/о н/о +22.6 +7.3 37 +23 +23 комфорт 861.2 1005.6 +21.8 +22.7
18 19.10 Ю 1 н/о н/о +19.1 +4.2 37 +21 +21 комфорт 860.3 1006.5 +19.1 +22.7
21 19.10 С 1 н/о н/о +13.9 +4.5 53 +14 +14 858.7 1007.7 +13.9 +22.7
00 20.10 С 2 н/о н/о +9.5 +4.5 71 +8 +8 856.3 1007.5 +9.0 +22.7
03 20.10 С 2 н/о н/о +9.8 +3.1 63 +9 +9 856.8 1007.9 +6.7 +22.7
06 20.10 ЮЗ 2 н/о н/о +18.4 +5.7 43 +19 +19 861.8 1008.6 +6.7
09 20.10 В 3 н/о н/о +27.6 +2.2 19 +26 +26 жарко 866.3 1008.3 +6.7 +28.2
12 20.10 В 4 н/о н/о +30.0 +5.6 21 +28 +28 жарко 865.7 1006.4 +6.7 +30.2
15 20.10 СВ 5 н/о н/о +29.4 +2.9 18 +27 +27 жарко 864.1 1004.9 +29.1 +30.9
18 20.10 СВ 9 н/о н/о +25.9 +1.5 20 +24 +24 комфорт 862.7 1005.3 +25.9 +30.9
21 20.10 СВ 12 н/о н/о +24.2 0.0 20 +23 +23 комфорт 863.0 1006.6 +24.1 +30.9
00 21.10 Ю 3 н/о н/о +22.9 -4.0 16 +21 +21 комфорт 861.8 1006.0 +22.1 +30.9
03 21.10 Ю 3 н/о н/о +20.7 -5.0 17 +21 +21 комфорт 860.5 1005.8 +19.9 +30.9
06 21.10 ЮЗ 3 н/о н/о +24.9 -4.1 14 +23 +23 комфорт 863.3 1006.5 +15.8
09 21.10 СВ 4 н/о н/о +29.4 +2.1 17 +27 +27 жарко 864.2 1005.0 +15.8 +30.1

 

Местоположение метеостанции Porterville (Южная Африка): широта -30.01 долгота 18.98 высота над уровнем моря 123 м.

В архиве по умолчанию представлена погода в Porterville за последнюю неделю. Архивные данные за месяц целиком и за предыдущие месяцы, начиная с января 2011 года, Вы можете получить, выбрав интересующий диапазон дат из раскрывающегося списка и нажав кнопку "Ввод!".


*Определитесь, кто Вы:
робот инопланетянин человек

Внимание! Время в таблицах - всемирное. Для получения местного времени необходимо прибавить поправку, которая в Porterville равна 2 ч.

Смотрите также архив погоды в соседних городах и на ближайших метеорологических станциях:

Погода в Pofadder (Южная Африка) (105 км)
Погода в Springbok (Южная Африка) (111 км)
Погода в Nieuwoudtville (Южная Африка) (148 км)
Погода в Brandvlei (Южная Африка) (153 км)
Погода в Koingnaas (Южная Африка) (165 км)
Погода в Calvinia (Южная Африка) (178 км)
Погода в Vredendal (Южная Африка) (189 км)
Погода в Vioolsdrif (Южная Африка) (198 км)
Погода в Augrabies Falls (Южная Африка) (205 км)
Погода в Port Nolloth (Южная Африка) (222 км)

Пояснения к столбцам:

Ветер - указаны скорость ветра в м/с - средняя за 10 мин, порывы в срок и между сроками (в фигурных скобках) и направление, откуда дует ветер: С - северный, СВ - северо-восточный, В - восточный, ЮВ - юго-восточный, Ю - южный, ЮЗ - юго-западный, З - западный, СЗ - северо-западный.
Видимость - горизонтальная дальность видимости в метрах или километрах. При видимости от 1 до 10 км при отсутствии осадков обычно наблюдается дымка, при ухудшении видимости до 1 км и менее - туман. В сухую погоду видимость может ухудшаться дымом, пылью или мглою.
Явления - указаны атмосферные явления, наблюдавшиеся в срок или в последний час перед сроком; фигурными скобками обозначены явления, наблюдавшиеся между сроками (за 1-3 часа до срока); квадратными скобками обозначены град или гололедные отложения с указанием их диаметра в мм.
Облачность - указаны через наклонную черту общая и нижняя облачность в баллах и высота нижней границы облаков в метрах; квадратными скобками обозначены формы облаков: Ci - перистые, Cs - перисто-слоистые, Cc - перисто-кучевые, Ac - высококучевые, As - высокослоистые, Sc - слоисто-кучевые, Ns - слоисто-дождевые, Cu - кучевые, Cb - кучево-дождевые. Подробнее классификацию облаков см. в Атласе облаков (PDF).
T - Температура воздуха - температура, измеренная на высоте 2 м над землей.
Td - Температура точки росы - температура, при понижении до которой содержащийся в воздухе водяной пар достигнет насыщения.
f - Относительная влажность воздуха - влажноcть воздуха, измеренная на высоте 2 м над землей.
Te - Эффективная температура - температура, которую ощущает одетый по сезону человек в тени. Характеристика душности погоды. При расчете учитывается влияние влажности воздуха и скорости ветра на теплоощущения человека.
Tes - Эффективная температура на солнце - температура, которую ощущает человек, с поправкой на солнечный нагрев. Характеристика знойности погоды. Зависит от высоты солнца над горизонтом, облачности и скорости ветра. Ночью, в пасмурную погоду, а также при ветре 12 м/с и более поправка равна нулю.
P - Атмосферное давление - приведенное к уровню моря атмосферное давление.
Po - Атмосферное давление - измеренное на уровне метеостанции атмосферное давление.
Tmin - Минимальная температура - минимум температуры воздуха на высоте 2 м над землей.
Tmax - Максимальная температура - максимум температуры воздуха на высоте 2 м над землей.
R - Количество осадков - Количество выпавших осадков за период времени, мм. При наведении курсора мыши на число - период времени, за который выпало указанное количество осадков.
R24 - Количество осадков - Количество выпавших осадков за 24 часа, мм.
S - Снежный покров - Высота снежного покрова, см. При наведении курсора мыши на число - состояние снежного покрова и степень покрытия местности в баллах.